Weather History for Jaipur, India

Change the Weather History Date:

Tuesday, May 7, 2013

  Actual Average Record
Temperature  
Mean Temperature 95 °F -  
Max Temperature 107 °F - - ()
Min Temperature 83 °F - - ()
Cooling Degree Days 30    
Growing Degree Days 45 (Base 50)    
Moisture  
Dew Point 37 °F    
Average Humidity 12    
Maximum Humidity 20    
Minimum Humidity 4    
Precipitation  
Precipitation 0.00 in - - ()
Sea Level Pressure  
Sea Level Pressure 29.67 in    
Wind  
Wind Speed 4 mph ()    
Max Wind Speed 9 mph    
Max Gust Speed -    
Visibility 2.3 miles    
Events      
T = Trace of Precipitation, MM = Missing Value Source: Averaged Metar Reports

Daily Weather History Graph

Daily Weather History Graph

Search for Another Location

Airport:

Trip Planner

Search our weather history database for the weather conditions in past years. The results will help you decide how hot, cold, wet, or windy it might be!

Date:

Astronomy

May. 07, 2013 Rise Set
Actual Time 5:44 AM IST 7:02 PM IST
Civil Twilight 5:19 AM IST 7:27 PM IST
Nautical Twilight 4:50 AM IST 7:57 PM IST
Astronomical Twilight 4:19 AM IST 8:27 PM IST
Moon 3:49 AM IST (5/7) 4:46 PM IST (5/7)
Length of Visible Light 14h 08m
Length of Day
13h 18m
Waning Crescent, 7% of the Moon is Illuminated
May 7
Waning Crescent
May 10
New
May 18
First Quarter
May 25
Full
Jun 1
Last Quarter

Hourly Weather History & Observations

Time (IST) Temp. Dew Point Humidity Pressure Visibility Wind Dir Wind Speed Gust Speed Precip Events Conditions
12:00 AM 93.2 °F 37.4 °F 14% 29.68 in 2.2 mi Variable 4.6 mph - N/A   Haze
1:00 AM 89.6 °F 39.2 °F 17% 29.68 in 2.2 mi Variable 4.6 mph - N/A   Haze
2:30 AM 90 °F 51 °F 17% 29.58 in 1 mi NNW 4.6 mph - -   Haze
4:00 AM 87.8 °F 35.6 °F 16% 29.65 in 2.2 mi Variable 5.8 mph - N/A   Haze
5:00 AM 86.0 °F 37.4 °F 18% 29.68 in 2.2 mi NNW 4.6 mph - N/A   Haze
5:30 AM 86 °F 42 °F 13% 29.60 in 1 mi NW 2.3 mph - -   Haze
6:00 AM 86.0 °F 39.2 °F 19% 29.68 in 2.2 mi Calm Calm - N/A   Haze
7:00 AM 89.6 °F 42.8 °F 20% 29.71 in 2.2 mi NE 4.6 mph - N/A   Haze
8:00 AM 95.0 °F 42.8 °F 16% 29.71 in 2.2 mi NE 4.6 mph - N/A   Haze
8:30 AM 96 °F 43 °F 9% 29.62 in 1 mi ENE 6.9 mph - -   Haze
9:00 AM 96.8 °F 41.0 °F 15% 29.74 in 2.2 mi East 9.2 mph - N/A   Haze
10:00 AM 98.6 °F 39.2 °F 13% 29.74 in 2.5 mi East 6.9 mph - N/A   Haze
11:00 AM 102.2 °F 33.8 °F 9% 29.74 in 2.5 mi Variable 6.9 mph - N/A   Haze
11:30 AM 103 °F 33 °F 4% 29.58 in 2 mi NE 6.9 mph - -   Haze
12:00 PM 102.2 °F 30.2 °F 8% 29.74 in 2.5 mi Variable 6.9 mph - N/A   Haze
1:00 PM 104.0 °F 32.0 °F 8% 29.74 in 2.5 mi Variable 9.2 mph - N/A   Haze
2:30 PM 104 °F 34 °F 4% 29.58 in 2 mi 3.5 mph - -   Haze
3:00 PM 105.8 °F 30.2 °F 7% 29.68 in 3.1 mi NW 9.2 mph - N/A   Haze
4:00 PM 105.8 °F 32.0 °F 8% 29.65 in 3.1 mi Variable 4.6 mph - N/A   Haze
5:00 PM 105.8 °F 32.0 °F 8% 29.65 in 3.1 mi NW 8.1 mph - N/A   Haze
5:30 PM 105 °F 35 °F 4% 29.53 in 2 mi NW 5.8 mph - -   Haze
6:00 PM 104.0 °F 30.2 °F 8% 29.65 in 3.1 mi WNW 8.1 mph - N/A   Haze
7:00 PM 100.4 °F 32.0 °F 9% 29.68 in 2.5 mi Variable 5.8 mph - N/A   Haze
8:00 PM 98.6 °F 33.8 °F 10% 29.68 in 2.5 mi Calm Calm - N/A   Haze
8:30 PM 96 °F 37 °F 6% 29.59 in 2 mi Calm Calm - -   Haze
9:00 PM 95.0 °F 35.6 °F 12% 29.71 in 2.5 mi Calm Calm - N/A   Haze
10:00 PM 93.2 °F 39.2 °F 15% 29.71 in 2.5 mi Calm Calm - N/A   Haze
11:00 PM 91.4 °F 42.8 °F 18% 29.71 in 2.5 mi Calm Calm - N/A   Haze
11:30 PM 88 °F 46 °F 14% 29.62 in 2 mi Calm Calm - -   Haze